Flag for U.S.A. Weather past 2 weeks in Cupertino, California, U.S.A.

Now
43 °F

Sunny.


Feels Like: 43 °F
Forecast: 43 / 66 °F
Wind: No wind

Location: Moffett Field

Current Time: Mar 4, 2015 at 7:23:53 AM

Latest Report: Mar 4, 2015 at 6:56 AM


Visibility: 10 mi

Pressure: 30.10 "Hg

Humidity: 76%

Dew point: 36 °F

Location of CupertinoLocation

Historic Weather in Cupertino — Graph

°F

Cupertino temperature yesterday

Maximum temperature yesterday: 64 °F (at 1:56 PM)
Minimum temperature yesterday: 42 °F (at 3:56 AM)
Average temperature yesterday: 53 °F

Past Weeks' High & Low Weather Summary

 TemperatureHumidityPressure
High71 °F (Feb 21, 2:56 PM)97% (Mar 1, 3:56 AM)30.38 "Hg (Mar 1, 3:56 AM)
Low38 °F (Feb 24, 6:56 AM)17% (Feb 24, 11:56 AM)29.75 "Hg (Feb 28, 3:56 AM)
Average55 °F67%30.03 "Hg
* Reported Feb 17 5:56 AM — Mar 4 5:56 AM, Cupertino, Weather by CustomWeather, © 2015

Note: Actual official high and low records may vary slightly from our data, if they occured in-between our weather recording intervals... More about our weather records

Advertising

Cupertino weather history for previous 24 hours

 ConditionsComfort  
Time TempWeatherWind HumidityBarometerVisibility
5:56 AM
Wed, Mar 4
44 °FClear.No wind79%30.09 "Hg10 mi
4:56 AM45 °FClear.No wind80%30.07 "Hg10 mi
3:56 AM44 °FClear.No wind82%30.06 "Hg10 mi
2:56 AM45 °FClear.No wind86%30.05 "Hg10 mi
1:56 AM44 °FClear.3 mph85%30.06 "Hg10 mi
12:56 AM48 °FClear.No wind80%30.06 "Hg10 mi
11:56 PM
Tue, Mar 3
50 °FClear.3 mph83%30.05 "Hg10 mi
10:56 PM49 °FClear.No wind86%30.04 "Hg10 mi
9:56 PM53 °FClear.No wind80%30.04 "Hg10 mi
8:56 PM53 °FClear.9 mph83%30.02 "Hg10 mi
7:56 PM54 °FClear.10 mph83%30.01 "Hg10 mi
6:56 PM56 °FClear.7 mph67%29.99 "Hg10 mi
5:56 PM58 °FSunny.8 mph72%29.98 "Hg10 mi
4:56 PM60 °FSunny.8 mph62%29.98 "Hg10 mi
3:56 PM62 °FSunny.14 mph56%29.98 "Hg10 mi
2:56 PM64 °FSunny.13 mph47%30.00 "Hg10 mi
1:56 PM64 °FSunny.8 mph49%30.01 "Hg10 mi
12:56 PM62 °FSunny.6 mph48%30.03 "Hg10 mi
11:56 AM60 °FSunny.3 mph56%30.06 "Hg10 mi
10:56 AM58 °FSunny.7 mph65%30.07 "Hg10 mi
9:56 AM56 °FSunny.No wind70%30.07 "Hg10 mi
8:56 AM51 °FSunny.No wind77%30.08 "Hg10 mi
7:56 AM47 °FSunny.No wind86%30.06 "Hg10 mi
Weather by CustomWeather, © 2015

See weather overviewHow to use our weather pages